When you browse on this site, cookies collect data to enhance your experience and personalize the content and advertising you see.
Visit our Privacy Policy to learn more. By continuing to use the site, you agree to this use of cookies and data.
  • In United Kingdom
  • List of Countries
  • For 7 days
  • Water Temperature
  • Satellite Maps
  • Weather Map
  • Weather Widgets
  • user-avatar
    Login

    Hourly Weather Litovo

    Today, 16 January, Wednesday

    Time Temperature Precipitation Wind Pressure Humidity
    00:00 -8°C° 0.1 mm 3 mps 734 mmHg 94%
    01:00 -8°C° 0.1 mm 3 mps 734 mmHg 95%
    02:00 -6°C° 0 mm 2 mps 734 mmHg 94%
    03:00 -6°C° 0.1 mm 2 mps 734 mmHg 94%
    04:00 -6°C° 0.1 mm 2 mps 735 mmHg 95%
    05:00 -6°C° 0.1 mm 2 mps 735 mmHg 95%
    06:00 -6°C° 0 mm 2 mps 735 mmHg 94%
    07:00 -7°C° 0 mm 3 mps 736 mmHg 94%
    08:00 -7°C° 0 mm 3 mps 736 mmHg 93%
    09:00 -7°C° 0.1 mm 3 mps 736 mmHg 93%
    10:00 -6°C° 0.1 mm 3 mps 737 mmHg 92%
    11:00 -6°C° 0.1 mm 3 mps 738 mmHg 91%
    12:00 -6°C° 0.1 mm 3 mps 738 mmHg 90%
    13:00 -7°C° 0.1 mm 4 mps 739 mmHg 89%
    14:00 -7°C° 0.1 mm 4 mps 739 mmHg 88%
    15:00 -7°C° 0 mm 3 mps 739 mmHg 88%
    16:00 -7°C° 0 mm 3 mps 740 mmHg 89%
    17:00 -8°C° 0 mm 3 mps 740 mmHg 89%
    18:00 -8°C° 0 mm 2 mps 740 mmHg 91%
    19:00 -9°C° 0 mm 2 mps 741 mmHg 93%
    20:00 -10°C° 0 mm 2 mps 741 mmHg 95%
    21:00 -10°C° 0 mm 2 mps 741 mmHg 95%
    22:00 -9°C° 0 mm 2 mps 741 mmHg 95%
    23:00 -9°C° 0 mm 2 mps 741 mmHg 95%

    Tomorrow, 17 January, Thursday

    Time Temperature Precipitation Wind Pressure Humidity
    00:00 -9°C° 0 mm 3 mps 740 mmHg 92%
    01:00 -9°C° 0 mm 4 mps 739 mmHg 90%
    02:00 -8°C° 0 mm 4 mps 739 mmHg 87%
    03:00 -7°C° 0.4 mm 5 mps 738 mmHg 88%
    04:00 -6°C° 0.4 mm 5 mps 737 mmHg 89%
    05:00 -5°C° 0.4 mm 6 mps 736 mmHg 90%
    06:00 -4°C° 0.3 mm 6 mps 735 mmHg 90%
    07:00 -3°C° 0.3 mm 6 mps 734 mmHg 90%
    08:00 -1°C° 0.3 mm 6 mps 734 mmHg 90%
    09:00 -1°C° 0.7 mm 6 mps 733 mmHg 91%
    10:00 -1°C° 0.7 mm 6 mps 733 mmHg 92%
    11:00 0°C° 0.7 mm 5 mps 733 mmHg 93%
    12:00 0°C° 0.8 mm 5 mps 732 mmHg 93%
    13:00 0°C° 0.8 mm 5 mps 732 mmHg 92%
    14:00 0°C° 0.8 mm 5 mps 731 mmHg 92%
    15:00 -1°C° 0.8 mm 6 mps 731 mmHg 90%
    16:00 -1°C° 0.8 mm 6 mps 730 mmHg 89%
    17:00 -2°C° 0.8 mm 6 mps 729 mmHg 88%
    18:00 -1°C° 0.3 mm 7 mps 729 mmHg 86%
    19:00 -1°C° 0.3 mm 7 mps 729 mmHg 84%
    20:00 -1°C° 0.3 mm 7 mps 729 mmHg 83%
    21:00 -1°C° 0.1 mm 7 mps 730 mmHg 82%
    22:00 -1°C° 0.1 mm 8 mps 730 mmHg 82%
    23:00 -1°C° 0.1 mm 8 mps 731 mmHg 81%

    Day after tomorrow, 18 January, Friday

    Time Temperature Precipitation Wind Pressure Humidity
    00:00 -2°C° 0.2 mm 7 mps 732 mmHg 82%
    01:00 -2°C° 0.2 mm 6 mps 733 mmHg 84%
    02:00 -2°C° 0.2 mm 6 mps 734 mmHg 85%
    03:00 -2°C° 0 mm 5 mps 735 mmHg 87%
    04:00 -3°C° 0 mm 4 mps 735 mmHg 88%
    05:00 -3°C° 0 mm 2 mps 735 mmHg 90%
    06:00 -5°C° 0 mm 2 mps 735 mmHg 92%
    07:00 -6°C° 0 mm 2 mps 735 mmHg 93%
    08:00 -6°C° 0 mm 1 mps 736 mmHg 94%
    09:00 -7°C° 0.6 mm 2 mps 736 mmHg 95%
    10:00 -8°C° 0.6 mm 3 mps 736 mmHg 95%
    11:00 -8°C° 0.6 mm 3 mps 736 mmHg 95%
    12:00 -9°C° 0.6 mm 4 mps 736 mmHg 94%
    13:00 -10°C° 0.6 mm 4 mps 737 mmHg 92%
    14:00 -10°C° 0.6 mm 4 mps 737 mmHg 91%
    15:00 -10°C° 0.1 mm 4 mps 738 mmHg 90%
    16:00 -10°C° 0.1 mm 4 mps 739 mmHg 89%
    17:00 -10°C° 0.1 mm 3 mps 740 mmHg 88%
    18:00 -10°C° 0 mm 3 mps 741 mmHg 89%
    19:00 -10°C° 0 mm 3 mps 742 mmHg 90%
    20:00 -10°C° 0 mm 3 mps 742 mmHg 92%
    21:00 -10°C° 0 mm 4 mps 742 mmHg 91%
    22:00 -8°C° 0 mm 4 mps 743 mmHg 90%
    23:00 -7°C° 0 mm 5 mps 743 mmHg 89%

    19 January, Saturday

    Time Temperature Precipitation Wind Pressure Humidity
    00:00 -7°C° 0.1 mm 5 mps 743 mmHg 88%
    01:00 -7°C° 0.1 mm 5 mps 744 mmHg 88%
    02:00 -7°C° 0.1 mm 5 mps 744 mmHg 88%
    03:00 -7°C° 0.1 mm 5 mps 744 mmHg 88%
    04:00 -7°C° 0.1 mm 5 mps 745 mmHg 88%
    05:00 -7°C° 0.1 mm 5 mps 745 mmHg 88%
    06:00 -7°C° 0.2 mm 5 mps 745 mmHg 89%
    07:00 -7°C° 0.2 mm 5 mps 746 mmHg 90%
    08:00 -7°C° 0.2 mm 4 mps 746 mmHg 91%
    09:00 -7°C° 0.1 mm 4 mps 747 mmHg 89%
    10:00 -7°C° 0.1 mm 4 mps 747 mmHg 87%
    11:00 -8°C° 0.1 mm 5 mps 747 mmHg 85%
    12:00 -7°C° 0 mm 5 mps 747 mmHg 85%
    13:00 -7°C° 0 mm 5 mps 747 mmHg 85%
    14:00 -6°C° 0 mm 5 mps 747 mmHg 85%
    15:00 -7°C° 0.1 mm 5 mps 747 mmHg 85%
    16:00 -7°C° 0.1 mm 5 mps 747 mmHg 86%
    17:00 -7°C° 0.1 mm 5 mps 747 mmHg 86%
    18:00 -7°C° 0 mm 4 mps 747 mmHg 87%
    19:00 -7°C° 0 mm 4 mps 747 mmHg 89%
    20:00 -7°C° 0 mm 4 mps 747 mmHg 91%
    21:00 -7°C° 0 mm 3 mps 747 mmHg 92%
    22:00 -7°C° 0 mm 3 mps 747 mmHg 93%
    23:00 -7°C° 0 mm 3 mps 748 mmHg 94%

    20 January, Sunday

    Time Temperature Precipitation Wind Pressure Humidity
    00:00 -8°C° 0 mm 3 mps 748 mmHg 94%
    01:00 -8°C° 0 mm 2 mps 748 mmHg 94%
    02:00 -9°C° 0 mm 2 mps 748 mmHg 93%
    03:00 -9°C° 0 mm 2 mps 748 mmHg 94%
    04:00 -10°C° 0 mm 2 mps 748 mmHg 94%
    05:00 -10°C° 0 mm 2 mps 748 mmHg 95%
    06:00 -10°C° 0 mm 2 mps 748 mmHg 95%
    07:00 -9°C° 0 mm 2 mps 748 mmHg 94%
    08:00 -8°C° 0 mm 2 mps 748 mmHg 94%
    09:00 -8°C° 0 mm 2 mps 748 mmHg 94%
    10:00 -7°C° 0 mm 2 mps 748 mmHg 93%
    11:00 -8°C° 0 mm 3 mps 748 mmHg 93%
    12:00 -8°C° 0.1 mm 3 mps 748 mmHg 93%
    13:00 -7°C° 0.1 mm 3 mps 748 mmHg 92%
    14:00 -6°C° 0.1 mm 3 mps 748 mmHg 92%
    15:00 -7°C° 0.1 mm 3 mps 748 mmHg 93%
    16:00 -7°C° 0.1 mm 3 mps 747 mmHg 93%
    17:00 -6°C° 0.1 mm 2 mps 747 mmHg 94%
    18:00 -7°C° 0 mm 3 mps 747 mmHg 94%
    19:00 -8°C° 0 mm 3 mps 748 mmHg 94%
    20:00 -9°C° 0 mm 3 mps 748 mmHg 94%
    21:00 -9°C° 0 mm 2 mps 748 mmHg 95%
    22:00 -9°C° 0 mm 2 mps 748 mmHg 95%
    23:00 -10°C° 0 mm 2 mps 748 mmHg 96%

    21 January, Monday

    Time Temperature Precipitation Wind Pressure Humidity
    00:00 -12°C° 0 mm 2 mps 748 mmHg 96%
    01:00 -12°C° 0 mm 2 mps 748 mmHg 96%
    02:00 -10°C° 0 mm 1 mps 749 mmHg 96%
    03:00 -11°C° 0 mm 1 mps 749 mmHg 96%
    04:00 -11°C° 0 mm 1 mps 749 mmHg 97%
    05:00 -11°C° 0 mm 1 mps 749 mmHg 97%
    06:00 -10°C° 0 mm 1 mps 749 mmHg 97%
    07:00 -12°C° 0 mm 2 mps 750 mmHg 96%
    08:00 -10°C° 0 mm 2 mps 750 mmHg 96%
    09:00 -10°C° 0 mm 2 mps 751 mmHg 95%
    10:00 -10°C° 0 mm 2 mps 751 mmHg 94%
    11:00 -12°C° 0 mm 3 mps 751 mmHg 93%
    12:00 -12°C° 0 mm 3 mps 752 mmHg 91%
    13:00 -12°C° 0 mm 3 mps 752 mmHg 90%
    14:00 -12°C° 0 mm 3 mps 752 mmHg 89%
    15:00 -13°C° 0 mm 3 mps 752 mmHg 90%
    16:00 -12°C° 0 mm 2 mps 753 mmHg 91%
    17:00 -13°C° 0 mm 2 mps 753 mmHg 92%
    18:00 -13°C° 0 mm 2 mps 753 mmHg 93%
    19:00 -13°C° 0 mm 2 mps 754 mmHg 94%
    20:00 -14°C° 0 mm 2 mps 754 mmHg 95%
    21:00 -14°C° 0 mm 2 mps 754 mmHg 95%
    22:00 -14°C° 0 mm 2 mps 755 mmHg 96%
    23:00 -14°C° 0 mm 2 mps 755 mmHg 96%
    Show more